Tracking 29892 objects as of 21-Nov-2024
HD Live streaming from Space Station
objects crossing your sky now

DMSP 5D-2 F13 DEB

Track DMSP 5D-2 F13 DEB now!
10-day predictions


NORAD ID: 40563
Int'l Code: 1995-015DW
Perigee: 766.4 km
Apogee: 792.9 km
Inclination: 98.7 °
Period: 100.3 minutes
Semi major axis: 7150 km
RCS: Unknown
Launch date: March 24, 1995
Source: United States (US)
Launch site: AIR FORCE WESTERN TEST RANGE (AFWTR)

Note: This is SATELLITE DEBRIS
Your satellite tracking list
Your tracking list is empty




NASA's NSSDC Master Catalog

Two Line Element Set (TLE):
1 40563U 95015DW  24325.29362979  .00009118  00000-0  31587-2 0  9996
2 40563  98.6863 349.4486 0018525 241.9501 117.9811 14.35761965500360
Source of the keplerian elements: AFSPC